DW3384 Weather Reports


time (UTC)temp
F
wind
direction
speed
knots
gust
knots
rain 1hr
in
rain 24hr
in
rain mn
in
humidity
%
barometer
mb
20220930161541 71 158 4.3 10.4 0.00 0.00 0.00 47 1011.4
20220930160038 70 173 5.2 10.4 0.00 0.00 0.00 48 1011.5
20220930154613 69 165 4.3 8.7 0.00 0.00 0.00 50 1011.6
20220930153047 68 163 4.3 8.7 0.00 0.00 0.00 52 1011.7
20220930151546 66 168 4.3 13.0 0.00 0.00 0.00 54 1011.7
20220930150033 65 186 6.1 11.3 0.00 0.00 0.00 55 1011.8
20220930144546 65 169 5.2 12.2 0.00 0.00 0.00 56 1011.9
20220930143030 63 167 5.2 10.4 0.00 0.00 0.00 58 1012.0
20220930141545 62 150 5.2 12.2 0.00 0.00 0.00 60 1012.0
20220930140028 61 130 3.5 10.4 0.00 0.00 0.00 61 1012.1
20220930134525 60 146 3.5 7.8 0.00 0.00 0.00 62 1012.0
20220930133024 59 127 1.7 9.6 0.00 0.00 0.00 63 1011.9
20220930131524 59 165 3.5 8.7 0.00 0.00 0.00 64 1011.9
20220930130030 58 164 3.5 6.1 0.00 0.00 0.00 65 1012.0
20220930124533 58 163 1.7 7.0 0.00 0.00 0.00 64 1011.8
20220930123016 59 113 2.6 7.8 0.00 0.00 0.00 62 1011.9
20220930121514 59 181 2.6 7.8 0.00 0.00 0.00 62 1011.9
20220930120013 59 151 2.6 5.2 0.00 0.00 0.00 61 1011.8
20220930114510 60 121 2.6 7.8 0.00 0.00 0.00 60 1011.5
20220930113009 60 131 4.3 7.8 0.00 0.00 0.00 60 1011.5
20220930111507 60 138 0.0 5.2 0.00 0.00 0.00 59 1011.3
20220930110005 61 178 1.7 5.2 0.00 0.00 0.00 59 1011.3
20220930104505 61 98 1.7 5.2 0.00 0.00 0.00 58 1011.3
20220930103003 61 186 1.7 6.1 0.00 0.00 0.00 58 1011.4
20220930101605 62 140 1.7 6.1 0.00 0.00 0.00 57 1011.4
20220930100058 62 167 3.5 7.8 0.00 0.00 0.00 56 1011.4
20220930094607 63 171 2.6 8.7 0.00 0.00 0.00 55 1011.5
20220930093112 63 176 3.5 12.2 0.00 0.00 0.00 54 1011.4
20220930091552 64 205 4.3 12.2 0.00 0.00 0.00 53 1011.4
20220930090112 63 116 4.3 7.0 0.00 0.00 0.00 53 1011.7
20220930084552 63 148 0.9 8.7 0.00 0.00 0.00 53 1011.7
20220930083059 63 107 0.9 6.1 0.00 0.00 0.00 53 1011.8
20220930081545 63 51 0.9 3.5 0.00 0.00 0.00 53 1011.8
20220930080044 63 26 0.0 3.5 0.00 0.00 0.00 52 1011.8
20220930074541 64 167 0.9 3.5 0.00 0.00 0.00 51 1012.0
20220930073041 64 255 0.0 5.2 0.00 0.00 0.00 51 1012.0
20220930071540 64 134 1.7 7.8 0.00 0.00 0.00 53 1012.1
20220930070039 64 15 0.9 3.5 0.00 0.00 0.00 53 1012.1
20220930064608 64 90 0.0 5.2 0.00 0.00 0.00 52 1012.2
20220930063038 65 78 0.9 2.6 0.00 0.00 0.00 51 1012.3
20220930061543 66 65 1.7 3.5 0.00 0.00 0.00 50 1012.1
20220930060036 66 86 1.7 3.5 0.00 0.00 0.00 49 1012.1
20220930054526 67 70 0.9 7.0 0.00 0.00 0.00 48 1012.2
20220930053023 67 151 1.7 7.0 0.00 0.00 0.00 48 1012.3
20220930051535 68 227 3.5 9.6 0.00 0.00 0.00 47 1012.4
20220930050020 68 123 2.6 8.7 0.00 0.00 0.00 47 1012.4
20220930044518 69 53 0.9 5.2 0.00 0.00 0.00 47 1012.4
20220930043036 70 96 5.2 11.3 0.00 0.00 0.00 46 1012.3
20220930041516 70 144 3.5 13.9 0.00 0.00 0.00 46 1012.2
20220930040015 71 161 2.6 9.6 0.00 0.00 0.00 45 1012.2
20220930034530 71 165 4.3 12.2 0.00 0.00 0.00 45 1012.0
20220930033014 72 98 3.5 12.2 0.00 0.00 0.00 45 1011.9
20220930031513 72 130 6.1 12.2 0.00 0.00 0.00 44 1011.9
20220930030019 73 140 5.2 16.5 0.00 0.00 0.00 44 1011.7
20220930024517 74 138 6.1 15.6 0.00 0.00 0.00 43 1011.3
20220930023012 74 157 7.0 14.8 0.00 0.00 0.00 42 1011.2
20220930021516 75 178 6.1 12.2 0.00 0.00 0.00 42 1011.1
20220930020025 76 158 7.0 17.4 0.00 0.00 0.00 40 1010.9
20220930014511 76 89 8.7 18.2 0.00 0.00 0.00 39 1010.7
20220930013010 77 107 7.0 13.9 0.00 0.00 0.00 38 1010.6
20220930011517 78 108 7.8 13.9 0.00 0.00 0.00 37 1010.4
20220930010008 79 128 7.8 13.0 0.00 0.00 0.00 35 1010.4
20220930004523 80 90 7.0 15.6 0.00 0.00 0.00 33 1010.3
20220930003006 81 158 6.1 13.0 0.00 0.00 0.00 32 1010.2
20220930001506 82 92 7.8 13.9 0.00 0.00 0.00 31 1010.2
20220930000005 83 132 7.8 13.0 0.00 0.00 0.00 30 1010.1
20220929234503 84 130 7.0 13.9 0.00 0.00 0.00 29 1010.2
20220929233009 85 185 7.0 14.8 0.00 0.00 0.00 28 1010.2
20220929231506 87 138 7.0 15.6 0.00 0.00 0.00 26 1010.0
20220929230008 87 186 5.2 10.4 0.00 0.00 0.00 26 1010.1
20220929224600 88 124 4.3 10.4 0.00 0.00 0.00 25 1010.2
20220929223100 89 134 6.1 14.8 0.00 0.00 0.00 25 1010.3
20220929221611 89 167 7.0 11.3 0.00 0.00 0.00 24 1010.5
20220929220055 90 134 6.1 9.6 0.00 0.00 0.00 24 1010.6
20220929214554 90 188 4.3 11.3 0.00 0.00 0.00 24 1010.7
20220929213054 89 140 2.6 13.0 0.00 0.00 0.00 24 1010.7
20220929211556 91 178 3.5 9.6 0.00 0.00 0.00 23 1010.9
20220929210055 91 219 5.2 12.2 0.00 0.00 0.00 22 1011.0
20220929204547 91 250 2.6 7.0 0.00 0.00 0.00 21 1011.2
20220929203046 91 186 5.2 9.6 0.00 0.00 0.00 22 1011.4
20220929201543 91 212 3.5 7.0 0.00 0.00 0.00 21 1011.7
20220929200043 91 251 5.2 8.7 0.00 0.00 0.00 21 1011.9
20220929194540 90 289 1.7 6.1 0.00 0.00 0.00 22 1012.3
20220929193041 90 180 3.5 7.0 0.00 0.00 0.00 23 1012.7
20220929191537 90 142 1.7 8.7 0.00 0.00 0.00 23 1013.1
20220929190028 90 264 2.6 5.2 0.00 0.00 0.00 23 1013.4
20220929184525 89 100 0.9 5.2 0.00 0.00 0.00 24 1013.7
20220929183027 89 242 0.0 4.3 0.00 0.00 0.00 25 1013.9
20220929181539 87 268 1.7 7.8 0.00 0.00 0.00 26 1014.3
20220929180013 86 286 0.9 6.1 0.00 0.00 0.00 27 1014.5
20220929174510 85 167 0.9 3.5 0.00 0.00 0.00 29 1014.8
20220929173012 84 200 3.5 6.1 0.00 0.00 0.00 29 1015.1
20220929171502 82 113 0.9 3.5 0.00 0.00 0.00 33 1015.3
20220929170111 81 255 0.0 4.3 0.00 0.00 0.00 33 1015.5
20220929164556 80 168 0.9 5.2 0.00 0.00 0.00 36 1015.8
20220929163051 78 182 0.0 5.2 0.00 0.00 0.00 38 1016.0